Location: Basses Si�yes
(44.0835°N, 6.2037°E)
Time: 03:20:57
(UTC+00:00)

STARLINK-1056 - Pass Details

Date: 27 February 2020
Orbit: 549 x 551 km, 53.0° (Epoch: 09 April)

Event Time Altitude Azimuth Distance (km) Brightness Sun altitude
Rises 18:55:07 0° 251° (WSW) 2,711 8.4 -17.8°
Reaches altitude 10° 18:57:24 10° 257° (WSW) 1,820 7.4 -18.2°
Maximum altitude 19:01:25 49° 333° (NNW) 715 4.3 -18.9°
Enters shadow 19:03:22 27° 35° (NE) 1,081 4.8 -19.3°
